Flag for U.S.A. Weather past 2 weeks in Farmington, New Mexico, U.S.A.

Now
65 °F

Sunny.


Feels Like: 65 °F
Forecast: 40 / 66 °F
Wind: 5 mph from Northwest

Location: Four Corners Regional Airport

Current Time: Sep 30, 2014 at 2:49:24 PM

Latest Report: Sep 30, 2014 at 1:53 PM


Visibility: 10 mi

Pressure: 29.91 "Hg

Humidity: 33%

Dew point: 35 °F

Location of FarmingtonLocation

Historic Weather in Farmington — Graph

°F

Farmington temperature yesterday

Maximum temperature yesterday: 63 °F (at 1:04 PM)
Minimum temperature yesterday: 46 °F (at 11:53 PM)
Average temperature yesterday: 56 °F

Past Weeks' High & Low Weather Summary

 TemperatureHumidityPressure
High89 °F (Sep 20, 5:53 PM)97% (Sep 28, 6:56 AM)30.16 "Hg (Sep 28, 6:56 AM)
Low41 °F (Sep 30, 5:53 AM)13% (Sep 24, 4:53 PM)29.70 "Hg (Sep 27, 3:53 PM)
Average68 °F48%29.97 "Hg
* Reported Sep 15 1:53 PM — Sep 30 1:53 PM, Farmington, Weather by CustomWeather, © 2014

Note: Actual official high and low records may vary slightly from our data, if they occured in-between our weather recording intervals... More about our weather records

Advertising

Farmington weather history for previous 24 hours

 ConditionsComfort  
Time TempWeatherWind HumidityBarometerVisibility
1:53 PM
Sep 30
65 °FSunny.5 mph33%29.91 "Hg10 mi
12:53 PM64 °FSunny.3 mph35%29.93 "Hg10 mi
11:53 AM60 °FSunny.5 mph49%29.96 "Hg10 mi
10:53 AM57 °FSunny.5 mph55%29.96 "Hg10 mi
9:53 AM51 °FSunny.7 mph71%29.98 "Hg10 mi
8:53 AM46 °FSunny.5 mph83%30.00 "Hg10 mi
7:53 AM43 °FClear.6 mph89%30.00 "Hg10 mi
6:53 AM41 °FClear.7 mph89%29.99 "Hg10 mi
5:53 AM41 °FClear.6 mph89%29.98 "Hg10 mi
4:53 AM43 °FClear.5 mph86%29.97 "Hg10 mi
3:53 AM43 °FClear.No wind86%29.98 "Hg10 mi
2:53 AM45 °FClear.3 mph80%29.98 "Hg10 mi
1:53 AM43 °FClear.3 mph86%29.98 "Hg10 mi
12:53 AM46 °FClear.No wind77%29.98 "Hg10 mi
11:53 PM
Sep 29
46 °FClear.5 mph79%30.00 "Hg10 mi
10:53 PM53 °FClear.No wind55%29.99 "Hg10 mi
9:53 PM52 °FPassing clouds.6 mph55%29.98 "Hg10 mi
8:53 PM53 °FClear.No wind52%29.97 "Hg10 mi
7:53 PM54 °FSunny.5 mph51%29.96 "Hg10 mi
6:53 PM58 °FSunny.9 mph44%29.93 "Hg10 mi
5:53 PM62 °FSunny.16 mph39%29.90 "Hg10 mi
4:53 PM63 °FSunny.21 mph40%29.89 "Hg10 mi
3:53 PM63 °FPartly sunny.17 mph43%29.88 "Hg10 mi
2:53 PM63 °FBroken clouds.18 mph37%29.87 "Hg10 mi
Weather by CustomWeather, © 2014

See weather overviewHow to use our weather pages